Powrót do katalogu

YAOGAN-34 03

AktywnyMilitariaLEO
NORAD 54249·PAYLOAD·🇨🇳 China

Wystrzelony Nov 15, 2022 z Jiuquan Satellite Launch Center

Loading…

Następne Przeloty (najbliższe 24 godziny)

TLE

ŚwieżeSource: Space-Track

Epoka: Sep 14, 2026, 13:53 UTC

1 54249U 22154A   26257.57899464 -.00000095  00000-0 -81383-5 0  9996
2 54249  63.4071  32.5935 0048895 351.6088   8.4116 13.45517011188284

Śledź YAOGAN-34 03 w czasie rzeczywistym z AllMySat

Download on the App Store